Regional Weather Roundup
Issued by NWS

Home | Current Version | Previous Version | Graphics & Text | Print | Product List | Glossary On
Versions: 1 2 3 4 5 6 7 8 9 10 11 12 13 14 15 16 17 18 19 20 21 22 23 24 25 26 27 28 29 30 31 32 33 34 35 36 37 38 39 40 41 42 43 44 45 46 47 48 49 50
000
ASUS43 KOAX 241702
RWRNE

WEATHER ROUNDUP FOR NEBRASKA
NATIONAL WEATHER SERVICE OMAHA NE
1200 PM CDT WED MAY 24 2017

NOTES: SATELLITE DATA IS BEING USED TO AUGMENT CLOUD COVER ABOVE
       12000 FEET.
       "FAIR" INDICATES FEW OR NO CLOUDS BELOW 12,000 FEET WITH NO
       SIGNIFICANT WEATHER AND/OR OBSTRUCTIONS TO VISIBILITY.

  * THESE STATIONS DO NOT REPORT WEATHER SUCH AS RAIN...SNOW OR FOG.

NEZ001>004-019>022-054>056-241800-
NEBRASKA PANHANDLE

CITY           SKY/WX    TMP DP  RH WIND       PRES   REMARKS
SCOTTSBLUFF    FAIR      68  42  38 SE9       29.67F
ALLIANCE       FAIR      63  40  42 S17       29.69F
CHADRON        FAIR      66  43  43 S16G24    29.62F
GORDON         FAIR      62  40  45 S14       29.68F
KIMBALL        FAIR      69  40  34 SW15      29.72F
SIDNEY         FAIR      62  42  47 S15       29.75F
$$

NEZ057>060-069>072-079>082-241800-
SOUTHWEST NEBRASKA

CITY           SKY/WX    TMP DP  RH WIND       PRES   REMARKS
NORTH PLATTE   FAIR      59  36  42 W3        29.77F
IMPERIAL       FAIR      61  39  44 VRB7      29.77F
LEXINGTON      FAIR      56  42  57 W3        29.79F
MCCOOK         FAIR      59  38  45 VRB3      29.80F
$$

NEZ005>010-023>029-035>040-094-241800-
NORTH CENTRAL NEBRASKA

CITY           SKY/WX    TMP DP  RH WIND       PRES   REMARKS
VALENTINE      FAIR      59  35  40 S6        29.73F
AINSWORTH      FAIR      56  42  59 S6        29.75F
BROKEN BOW     FAIR      56  41  57 VRB7      29.78F
$$

NEZ041-046>049-061>064-073>077-083>087-241800-
SOUTH CENTRAL NEBRASKA

CITY           SKY/WX    TMP DP  RH WIND       PRES   REMARKS
GRAND ISLAND   FAIR      59  43  55 N5        29.79F
AURORA         FAIR      59  42  54 N6        29.78F
HASTINGS       FAIR      59  42  53 N8        29.80F
HEBRON         FAIR      61  45  56 N7        29.78S
HOLDREGE       PTSUNNY   54  39  57 NW5       29.80F
KEARNEY *      FAIR      55  37  50 N5        29.80F
$$

NEZ011>018-030>034-042>045-241800-
NORTHEAST NEBRASKA

CITY           SKY/WX    TMP DP  RH WIND       PRES   REMARKS
NORFOLK        PTSUNNY   57  43  59 CALM      29.75F
ALBION         PTSUNNY   60  43  53 N5        29.77F
BLAIR          PTSUNNY   58  47  68 N13G20    29.75S
FREMONT        FAIR      62  43  49 N8        29.76F
TEKAMAH        FAIR      60  47  61 N13       29.75F
WAYNE          CLOUDY    58  47  66 N10       29.76F
$$

NEZ050>053-065>068-078-088>093-241800-
SOUTHEAST NEBRASKA

CITY           SKY/WX    TMP DP  RH WIND       PRES   REMARKS
LINCOLN        FAIR      63  47  55 N13G18    29.77S
OMAHA EPPLEY   FAIR      63  48  58 N13       29.74F
BEATRICE       PTSUNNY   62  46  55 NE9       29.76S
FALLS CITY     PTSUNNY   61  47  59 N15G22    29.72S
NEBRASKA CITY  PTSUNNY   62  43  50 N15G21    29.74F
$$

NEZ044-045-051>053-067-241800-
OMAHA AREA

CITY           SKY/WX    TMP DP  RH WIND       PRES   REMARKS
OMAHA EPPLEY   FAIR      63  48  58 N13       29.74F
BLAIR          PTSUNNY   58  47  68 N13G20    29.75S
FREMONT        FAIR      62  43  49 N8        29.76F
OFFUTT AFB     FAIR      60  47  61 N14G20    29.74F
WAHOO          FAIR      61  46  57 N10G16    29.76S
$$




USA.gov is the U.S. government's official web portal to all federal, state and local government web resources and services.